DLH05Y EDDM-LEAL

Flight info

Callsign DLH05Y
Flight time N/A
Altitude 35000
Route TURBU7S/26L TURBU Y107 TOBSO DCT BAKOR DCT SUMIR DCT PIDAD DCT TALEP DCT RARQU DCT BALEN DCT SORAS DCT NOMTO DCT NELAS DCT POS DCT OLUTO DCT ADX DCT OKITI DCT IBEBA DCT BAVER M603 GERVU
Aircraft A321/M-SDE3FGHIRWY/LB1

Departure

Time N/A
Airport Munich Airport (EDDM)

Arrival

Time 2026-05-03 21:30
Airport Alicante-Elche Miguel Hernández Airport (LEAL)
Time Latitude Longitude Altitude Speed Heading
2026-05-03 20:55 38.91585 0.79077 28625 ft 412 kts 248°
2026-05-03 20:55 38.90452 0.75430 28076 ft 404 kts 248°
2026-05-03 20:55 38.89502 0.72374 27499 ft 401 kts 248°
2026-05-03 20:55 38.88473 0.69068 26877 ft 397 kts 248°
2026-05-03 20:56 38.87452 0.65793 26270 ft 393 kts 248°
2026-05-03 20:56 38.86441 0.62563 25665 ft 389 kts 248°
2026-05-03 20:56 38.85434 0.59349 25071 ft 385 kts 248°
2026-05-03 20:56 38.84437 0.56174 24476 ft 382 kts 248°
2026-05-03 20:57 38.83448 0.53025 23898 ft 379 kts 248°
2026-05-03 20:57 38.82467 0.49894 23270 ft 377 kts 247°
2026-05-03 20:57 38.81294 0.46918 22658 ft 372 kts 238°
2026-05-03 20:57 38.79907 0.44092 22037 ft 376 kts 238°
2026-05-03 20:58 38.78520 0.41272 21440 ft 374 kts 238°
2026-05-03 20:58 38.77148 0.38485 20825 ft 371 kts 238°
2026-05-03 20:58 38.75765 0.35678 20215 ft 368 kts 238°
2026-05-03 20:58 38.74417 0.32940 19619 ft 366 kts 238°
2026-05-03 20:59 38.73045 0.30158 19015 ft 363 kts 238°
2026-05-03 20:59 38.71714 0.27464 18431 ft 360 kts 238°
2026-05-03 20:59 38.70370 0.24743 17783 ft 357 kts 238°
2026-05-03 20:59 38.69056 0.22081 17217 ft 353 kts 238°
2026-05-03 21:00 38.67747 0.19434 16633 ft 349 kts 238°
2026-05-03 21:00 38.66890 0.17705 16257 ft 347 kts 238°
2026-05-03 21:00 38.65176 0.14249 15508 ft 343 kts 238°
2026-05-03 21:00 38.63915 0.11710 14955 ft 340 kts 238°
2026-05-03 21:01 38.62648 0.09160 14395 ft 337 kts 238°
2026-05-03 21:01 38.61395 0.06640 13852 ft 334 kts 237°
2026-05-03 21:01 38.60162 0.04149 13235 ft 332 kts 239°
2026-05-03 21:01 38.59311 0.01434 12842 ft 324 kts 257°
2026-05-03 21:02 38.59070 -0.01371 12712 ft 308 kts 263°
2026-05-03 21:02 38.58903 -0.04046 12584 ft 294 kts 263°
2026-05-03 21:02 38.58753 -0.06578 12453 ft 281 kts 263°
2026-05-03 21:02 38.58606 -0.09056 12323 ft 276 kts 263°
2026-05-03 21:03 38.58463 -0.11463 12197 ft 275 kts 263°
2026-05-03 21:03 38.58317 -0.13889 12081 ft 275 kts 263°
2026-05-03 21:03 38.58166 -0.16343 11949 ft 275 kts 263°
2026-05-03 21:03 38.58016 -0.18782 11825 ft 275 kts 263°
2026-05-03 21:04 38.57867 -0.21214 11701 ft 275 kts 263°
2026-05-03 21:04 38.57716 -0.23651 11574 ft 274 kts 263°
2026-05-03 21:04 38.57563 -0.26089 11451 ft 274 kts 262°
2026-05-03 21:04 38.57317 -0.28489 11329 ft 273 kts 257°
2026-05-03 21:05 38.56851 -0.30836 11204 ft 272 kts 252°
2026-05-03 21:05 38.56308 -0.33148 11082 ft 272 kts 251°
2026-05-03 21:05 38.55758 -0.35456 10961 ft 272 kts 251°
2026-05-03 21:05 38.55349 -0.37184 10876 ft 272 kts 251°
2026-05-03 21:06 38.54785 -0.39537 10754 ft 272 kts 251°
2026-05-03 21:06 38.54229 -0.41846 10635 ft 272 kts 251°
2026-05-03 21:06 38.53671 -0.44160 10511 ft 272 kts 251°
2026-05-03 21:06 38.53112 -0.46470 10401 ft 272 kts 251°
2026-05-03 21:07 38.52553 -0.48770 10281 ft 271 kts 251°
2026-05-03 21:07 38.52002 -0.51032 10158 ft 261 kts 252°
2026-05-03 21:07 38.51470 -0.53192 10050 ft 249 kts 251°
2026-05-03 21:07 38.50959 -0.55287 9548 ft 254 kts 251°
2026-05-03 21:08 38.50422 -0.57457 9088 ft 257 kts 251°
2026-05-03 21:08 38.49883 -0.59640 8696 ft 256 kts 254°
2026-05-03 21:08 38.49794 -0.61864 8311 ft 257 kts 277°
2026-05-03 21:08 38.50155 -0.64143 7926 ft 259 kts 281°
2026-05-03 21:09 38.50555 -0.66373 7606 ft 257 kts 281°
2026-05-03 21:09 38.50953 -0.68593 7274 ft 256 kts 282°
2026-05-03 21:09 38.51341 -0.70799 6937 ft 254 kts 282°
2026-05-03 21:09 38.51719 -0.73000 6618 ft 253 kts 282°
2026-05-03 21:10 38.52077 -0.75129 6476 ft 244 kts 281°
2026-05-03 21:10 38.52422 -0.77196 6359 ft 235 kts 281°
2026-05-03 21:10 38.52696 -0.79223 6232 ft 229 kts 269°
2026-05-03 21:10 38.52284 -0.81144 6099 ft 229 kts 238°
2026-05-03 21:11 38.51096 -0.82509 5870 ft 232 kts 208°
2026-05-03 21:11 38.49513 -0.83100 5285 ft 242 kts 193°
2026-05-03 21:11 38.47874 -0.83474 5040 ft 237 kts 191°
2026-05-03 21:11 38.46274 -0.83818 4794 ft 231 kts 191°
2026-05-03 21:12 38.44702 -0.84160 4563 ft 224 kts 191°
2026-05-03 21:12 38.43194 -0.84494 4365 ft 218 kts 191°
2026-05-03 21:12 38.41708 -0.84793 4238 ft 216 kts 183°
2026-05-03 21:12 38.40248 -0.84456 4117 ft 216 kts 164°
2026-05-03 21:13 38.38826 -0.83837 3989 ft 216 kts 161°
2026-05-03 21:13 38.37410 -0.83192 3866 ft 215 kts 161°
2026-05-03 21:13 38.36025 -0.82563 3748 ft 214 kts 161°
2026-05-03 21:13 38.34624 -0.81932 3622 ft 214 kts 161°
2026-05-03 21:14 38.33227 -0.81234 3505 ft 213 kts 152°
2026-05-03 21:14 38.32093 -0.80046 3413 ft 206 kts 130°
2026-05-03 21:14 38.31428 -0.78565 3335 ft 188 kts 111°
2026-05-03 21:14 38.31145 -0.76979 3162 ft 179 kts 101°
2026-05-03 21:15 38.30935 -0.75443 2951 ft 173 kts 101°
2026-05-03 21:15 38.30731 -0.73963 2737 ft 170 kts 101°
2026-05-03 21:15 38.30526 -0.72478 2511 ft 167 kts 101°
2026-05-03 21:15 38.30326 -0.71028 2306 ft 165 kts 101°
2026-05-03 21:16 38.30129 -0.69600 2082 ft 165 kts 101°
2026-05-03 21:16 38.29933 -0.68182 1856 ft 155 kts 101°
2026-05-03 21:16 38.29750 -0.66858 1653 ft 149 kts 101°
2026-05-03 21:16 38.29572 -0.65574 1452 ft 146 kts 100°
2026-05-03 21:17 38.29409 -0.64306 1248 ft 144 kts 99°
2026-05-03 21:17 38.29299 -0.63473 1113 ft 143 kts 100°
2026-05-03 21:17 38.29054 -0.61811 840 ft 142 kts 99°
2026-05-03 21:17 38.28881 -0.60581 698 ft 141 kts 99°
2026-05-03 21:18 38.28709 -0.59362 505 ft 141 kts 100°
2026-05-03 21:18 38.28537 -0.58123 292 ft 139 kts 100°
2026-05-03 21:18 38.28378 -0.56925 237 ft 140 kts 98°
2026-05-03 21:18 38.28209 -0.55603 892 ft 153 kts 100°
2026-05-03 21:19 38.28007 -0.54264 1719 ft 157 kts 101°
2026-05-03 21:19 38.27822 -0.52807 1930 ft 177 kts 99°
2026-05-03 21:19 38.27597 -0.51174 2100 ft 201 kts 101°
2026-05-03 21:19 38.27319 -0.49312 2311 ft 222 kts 101°
2026-05-03 21:20 38.27026 -0.47339 2817 ft 229 kts 100°
2026-05-03 21:20 38.27093 -0.45320 3435 ft 234 kts 72°
2026-05-03 21:20 38.27990 -0.43590 3927 ft 240 kts 41°
2026-05-03 21:20 38.29460 -0.42639 4011 ft 238 kts
2026-05-03 21:21 38.31065 -0.42796 4036 ft 235 kts 338°
2026-05-03 21:21 38.32359 -0.44018 4037 ft 231 kts 304°
2026-05-03 21:21 38.32988 -0.45877 4039 ft 230 kts 284°
2026-05-03 21:21 38.33366 -0.47859 4039 ft 230 kts 282°
2026-05-03 21:22 38.33718 -0.49856 4035 ft 230 kts 281°
2026-05-03 21:22 38.34063 -0.51832 3986 ft 230 kts 281°
2026-05-03 21:22 38.34407 -0.53806 3861 ft 230 kts 281°
2026-05-03 21:22 38.34753 -0.55792 3740 ft 229 kts 281°
2026-05-03 21:23 38.35073 -0.57754 3603 ft 223 kts 281°
2026-05-03 21:23 38.35408 -0.59668 3484 ft 217 kts 281°
2026-05-03 21:23 38.35740 -0.61543 3364 ft 216 kts 281°
2026-05-03 21:23 38.36068 -0.63383 3250 ft 206 kts 281°
2026-05-03 21:24 38.36379 -0.65110 3128 ft 196 kts 281°
2026-05-03 21:24 38.36684 -0.66793 3004 ft 193 kts 281°
2026-05-03 21:24 38.36982 -0.68448 2874 ft 191 kts 282°
2026-05-03 21:24 38.37275 -0.70091 2757 ft 190 kts 281°
2026-05-03 21:25 38.37506 -0.71692 2624 ft 177 kts 268°
2026-05-03 21:25 38.37085 -0.73062 2496 ft 169 kts 224°
2026-05-03 21:25 38.36057 -0.73645 2374 ft 165 kts 181°
2026-05-03 21:25 38.34995 -0.73552 2251 ft 165 kts 172°
2026-05-03 21:26 38.33871 -0.73357 2139 ft 165 kts 172°
2026-05-03 21:26 38.32736 -0.73148 2069 ft 164 kts 172°
2026-05-03 21:26 38.31647 -0.72736 2031 ft 164 kts 152°
2026-05-03 21:26 38.30769 -0.71812 2034 ft 165 kts 129°
2026-05-03 21:27 38.30260 -0.70504 2036 ft 166 kts 104°
2026-05-03 21:27 38.30052 -0.69065 1951 ft 161 kts 101°
2026-05-03 21:27 38.29867 -0.67712 1765 ft 152 kts 101°
2026-05-03 21:27 38.29687 -0.66408 1563 ft 147 kts 100°
2026-05-03 21:28 38.29511 -0.65135 1375 ft 145 kts 100°
2026-05-03 21:28 38.29337 -0.63879 1184 ft 144 kts 99°
2026-05-03 21:28 38.29165 -0.62639 992 ft 142 kts 99°
2026-05-03 21:28 38.28994 -0.61400 816 ft 142 kts 99°
2026-05-03 21:29 38.28816 -0.60175 648 ft 141 kts 100°
2026-05-03 21:29 38.28704 -0.59340 518 ft 140 kts 99°
2026-05-03 21:29 38.28541 -0.58136 304 ft 140 kts 99°
2026-05-03 21:29 38.28371 -0.56925 150 ft 137 kts 100°
2026-05-03 21:30 38.28228 -0.55895 104 ft 84 kts 100°
2026-05-03 21:30 38.28166 -0.55446 89 ft 39 kts 100°
2026-05-03 21:30 38.28120 -0.55110 68 ft 34 kts 98°
2026-05-03 21:30 38.28137 -0.54918 68 ft 16 kts 72°
2026-05-03 21:31 38.28166 -0.54817 65 ft 13 kts 70°
2026-05-03 21:31 38.28217 -0.54712 61 ft 15 kts 13°
2026-05-03 21:31 38.28248 -0.54765 62 ft 8 kts 281°
2026-05-03 21:31 38.28258 -0.54835 63 ft 18 kts 281°
2026-05-03 21:32 38.28278 -0.54980 69 ft 9 kts 280°
2026-05-03 21:32 38.28290 -0.55063 76 ft 10 kts 279°
2026-05-03 21:32 38.28302 -0.55154 82 ft 12 kts 279°
2026-05-03 21:32 38.28356 -0.55203 87 ft 12 kts 29°
2026-05-03 21:33 38.28414 -0.55102 91 ft 17 kts 67°
2026-05-03 21:33 38.28438 -0.54992 88 ft 13 kts 29°
2026-05-03 21:33 38.28530 -0.54966 87 ft 9 kts
2026-05-03 21:33 38.28596 -0.54955 89 ft 9 kts
2026-05-03 21:34 38.28637 -0.54950 88 ft 2 kts
2026-05-03 21:34 38.28688 -0.54933 87 ft 12 kts 17°
2026-05-03 21:34 38.28727 -0.54960 92 ft 0 kts 282°
2026-05-03 21:34 38.28727 -0.54967 93 ft 1 kts 279°
2026-05-03 21:35 38.28729 -0.54984 94 ft 4 kts 278°
2026-05-03 21:35 38.28733 -0.55000 94 ft 0 kts 285°
2026-05-03 21:35 38.28734 -0.55004 94 ft 0 kts 285°
2026-05-03 21:35 38.28734 -0.55005 94 ft 0 kts 285°